Home   Weather   Hobart   Past weeks

Flag for Australia Past Weather in Hobart, Tasmania, Australia — Yesterday and Last 2 Weeks

Now
63 °F

Scattered clouds.


Feels Like: 63 °F
Forecast: 55 / 76 °F
Wind: 2 mph from North

Location: Hobart Airport

Current Time: Jan 17, 2017 at 9:13:41 am

Latest Report: Jan 17, 2017 at 8:30 am


Visibility: N/A

Pressure: 29.71 "Hg

Humidity: 64%

Dew Point: 50 °F

Location of HobartLocation

Past Weather in Hobart — Graph

°F

Hobart Temperature Yesterday

Maximum temperature yesterday: 75 °F (at 2:00 pm)
Minimum temperature yesterday: 57 °F (at 3:30 am)
Average temperature yesterday: 65 °F

High & Low Weather Summary for the Past Weeks

 TemperatureHumidityPressure
High90 °F (Jan 8, 12:30 pm)94% (Jan 3, 4:00 am)30.27 "Hg (Jan 3, 4:00 am)
Low50 °F (Jan 3, 5:30 am)17% (Jan 8, 2:00 pm)29.03 "Hg (Jan 13, 3:56 pm)
Average65 °F56%29.79 "Hg
* Reported Jan 2 8:00 am — Jan 17 8:00 am, Hobart, Weather by CustomWeather, © 2017

Note: Actual official high and low records may vary slightly from our data, if they occured in-between our weather recording intervals... More about our weather records

Advertising

Hobart Weather History for the Previous 24 Hours

Scroll right to see more
 ConditionsComfort  
Time TempWeatherWind HumidityBarometerVisibility
8:00 am
Tue, Jan 17
61 °FPassing clouds.7 mph63%29.71 "HgN/A
7:30 am59 °FPassing clouds.8 mph68%29.71 "HgN/A
7:00 am57 °FSunny.8 mph67%29.68 "Hg10 mi
6:30 am55 °FSunny.7 mph77%29.68 "Hg10 mi
6:00 am54 °FPassing clouds.5 mph77%29.65 "HgN/A
5:30 am55 °FClear.No wind72%29.65 "Hg10 mi
5:00 am54 °FClear.No wind77%29.65 "Hg10 mi
4:30 am59 °FClear.3 mph68%29.62 "Hg10 mi
4:00 am59 °FClear.12 mph59%29.62 "Hg10 mi
3:30 am61 °FClear.7 mph55%29.62 "Hg10 mi
3:00 am61 °FClear.12 mph55%29.62 "Hg10 mi
2:00 am63 °FClear.8 mph52%29.65 "Hg10 mi
1:30 am63 °FClear.13 mph52%29.65 "Hg10 mi
1:00 am63 °FClear.9 mph56%29.65 "Hg10 mi
12:30 am61 °FClear.8 mph59%29.68 "Hg10 mi
12:00 am59 °FClear.6 mph82%29.68 "Hg10 mi
11:30 pm
Mon, Jan 16
57 °FClear.2 mph88%29.71 "Hg10 mi
11:00 pm61 °FClear.5 mph83%29.71 "Hg10 mi
10:30 pm63 °FClear.2 mph83%29.71 "Hg10 mi
10:00 pm63 °FClear.6 mph77%29.71 "Hg10 mi
9:30 pm63 °FClear.9 mph83%29.71 "Hg10 mi
9:00 pm64 °FClear.7 mph73%29.71 "Hg10 mi
8:30 pm66 °FSunny.7 mph68%29.71 "Hg10 mi
8:00 pm68 °FPassing clouds.10 mph60%29.68 "HgN/A
7:30 pm70 °FPassing clouds.13 mph57%29.71 "HgN/A
7:00 pm70 °FPassing clouds.10 mph57%29.68 "HgN/A
6:30 pm72 °FPassing clouds.12 mph53%29.68 "HgN/A
6:00 pm72 °FPassing clouds.12 mph44%29.71 "HgN/A
5:30 pm73 °FPassing clouds.13 mph44%29.71 "HgN/A
5:00 pm73 °FPassing clouds.13 mph41%29.71 "HgN/A
4:30 pm73 °FPassing clouds.13 mph41%29.74 "HgN/A
4:00 pm73 °FPassing clouds.17 mph41%29.74 "HgN/A
3:30 pm72 °FPassing clouds.17 mph44%29.74 "HgN/A
3:00 pm72 °FPassing clouds.14 mph41%29.77 "HgN/A
2:30 pm72 °FPassing clouds.15 mph38%29.77 "HgN/A
2:00 pm75 °FPassing clouds.8 mph34%29.77 "HgN/A
1:30 pm73 °FPassing clouds.7 mph36%29.80 "HgN/A
1:00 pm72 °FPassing clouds.7 mph38%29.80 "HgN/A
12:30 pm72 °FPassing clouds.13 mph38%29.80 "HgN/A
12:00 pm72 °FPassing clouds.10 mph38%29.83 "HgN/A
11:00 am68 °FScattered clouds.13 mph43%29.83 "HgN/A
10:30 am68 °FScattered clouds.16 mph40%29.83 "HgN/A
10:00 am66 °FScattered clouds.14 mph43%29.86 "HgN/A
9:30 am64 °FScattered clouds.17 mph46%29.86 "HgN/A
9:00 am63 °FScattered clouds.16 mph49%29.86 "HgN/A
Weather by CustomWeather, © 2017

See weather overviewHow to use our weather pages